K8VGL Weather Reports


time (UTC)temp
C
wind
direction
speed
KPH
gust
KPH
rain 1hr
cm
rain 24hr
cm
rain mn
cm
humidity
%
barometer
mb
20260905190040 32 45 1.6 4.8 0.00 0.00 0.00 65 1011.8
20260905184547 31 135 0.0 4.8 0.00 0.00 0.00 67 1012.0
20260905183036 31 262 1.6 4.8 0.00 0.00 0.00 66 1012.2
20260905181535 31 38 0.0 6.4 0.00 0.00 0.00 66 1012.4
20260905180040 31 129 1.6 6.4 0.00 0.00 0.00 64 1012.6
20260905174530 31 132 1.6 9.7 0.00 0.00 0.00 68 1012.6
20260905173030 30 248 0.0 8.0 0.00 0.00 0.00 65 1012.7
20260905171529 30 280 1.6 4.8 0.00 0.00 0.00 66 1012.9
20260905170025 30 283 1.6 6.4 0.00 0.00 0.00 63 1013.1
20260905164526 30 140 3.2 6.4 0.00 0.00 0.00 65 1013.4
20260905163021 28 350 1.6 9.7 0.00 0.00 0.00 65 1013.5
20260905161516 28 179 1.6 11.3 0.00 0.00 0.00 67 1013.5
20260905160015 28 264 3.2 11.3 0.00 0.00 0.00 67 1013.5
20260905154511 27 2 3.2 12.9 0.00 0.00 0.00 69 1013.5
20260905153014 26 185 3.2 11.3 0.00 0.00 0.00 70 1013.5
20260905151511 26 259 1.6 9.7 0.00 0.00 0.00 73 1013.8
20260905150108 25 65 3.2 12.9 0.00 0.00 0.00 73 1013.8
20260905144558 25 254 1.6 12.9 0.00 0.00 0.00 75 1013.7
20260905143058 25 277 3.2 11.3 0.00 0.00 0.00 75 1014.0
20260905141555 24 70 1.6 8.0 0.00 0.00 0.00 76 1014.0
20260905140055 23 42 4.8 11.3 0.00 0.00 0.00 77 1014.1
20260905134556 23 137 3.2 11.3 0.00 0.00 0.00 79 1014.0
20260905133053 23 133 4.8 11.3 0.00 0.00 0.00 79 1014.1
20260905131553 22 135 3.2 12.9 0.00 0.00 0.00 80 1014.1
20260905130050 22 145 1.6 12.9 0.00 0.00 0.00 82 1014.2
20260905124549 22 165 4.8 11.3 0.00 0.00 0.00 82 1014.2
20260905123102 22 123 3.2 16.1 0.00 0.00 0.00 83 1014.2
20260905121553 22 96 1.6 6.4 0.00 0.00 0.00 83 1014.3
20260905120044 22 147 1.6 6.4 0.00 0.00 0.00 84 1014.0
20260905114542 22 140 3.2 12.9 0.00 0.00 0.00 84 1013.8
20260905113039 23 91 4.8 14.5 0.00 0.00 0.00 88 1013.4
20260905111536 22 80 3.2 11.3 0.00 0.00 0.00 97 1013.2
20260905110034 22 225 0.0 1.6 0.00 0.00 0.00 97 1012.5
20260905104533 22 225 0.0 0.0 0.00 0.00 0.00 97 1012.3
20260905103032 22 225 0.0 0.0 0.00 0.00 0.00 97 1012.4
20260905101534 22 225 0.0 0.0 0.00 0.00 0.00 97 1012.2
20260905100106 22 225 0.0 0.0 0.00 0.00 0.00 96 1012.1
20260905094541 23 225 0.0 0.0 0.00 0.00 0.00 96 1012.1
20260905093029 23 225 0.0 0.0 0.00 0.00 0.00 96 1012.2
20260905091528 23 225 0.0 0.0 0.00 0.00 0.00 96 1012.1
20260905090027 23 225 0.0 0.0 0.00 0.00 0.00 96 1012.2
20260905084526 23 225 0.0 0.0 0.00 0.00 0.00 96 1012.1
20260905083028 23 225 0.0 0.0 0.00 0.00 0.00 96 1012.1
20260905081526 23 225 0.0 0.0 0.00 0.00 0.00 97 1011.8
20260905080024 23 225 0.0 0.0 0.00 0.00 0.00 97 1011.5
20260905074528 23 225 0.0 0.0 0.00 0.00 0.00 97 1011.5
20260905073023 23 225 0.0 0.0 0.00 0.00 0.00 97 1011.4
20260905071522 23 225 0.0 0.0 0.00 0.00 0.00 97 1011.5
20260905070020 23 225 0.0 0.0 0.00 0.00 0.00 97 1011.6
20260905064518 23 225 0.0 0.0 0.00 0.00 0.00 97 1011.8
20260905063016 23 225 0.0 0.0 0.00 0.00 0.00 96 1012.2
20260905061514 23 225 0.0 0.0 0.00 0.00 0.00 96 1012.4
20260905060014 23 225 0.0 1.6 0.00 0.00 0.00 96 1012.4
20260905054523 23 225 0.0 0.0 0.00 0.00 0.00 96 1012.6
20260905053008 24 225 0.0 0.0 0.00 0.00 0.00 96 1012.7
20260905051509 24 225 0.0 0.0 0.00 0.00 0.00 96 1012.7
20260905050006 24 225 0.0 1.6 0.00 0.00 0.00 95 1012.7
20260905044505 24 225 0.0 0.0 0.00 0.00 0.00 95 1012.8
20260905043004 24 225 0.0 0.0 0.00 0.00 0.00 94 1012.7
20260905041503 25 225 0.0 0.0 0.00 0.00 0.00 94 1012.9
20260905040108 25 225 0.0 0.0 0.00 0.00 0.00 93 1013.0
20260905034606 25 225 0.0 0.0 0.00 0.00 0.00 93 1012.9
20260905033058 25 225 0.0 0.0 0.00 0.00 0.00 92 1013.0
20260905031558 25 225 0.0 0.0 0.00 0.00 0.00 91 1013.0
20260905030057 25 225 0.0 0.0 0.00 0.00 0.00 91 1013.0
20260905024602 25 224 0.0 0.0 0.00 0.00 0.00 90 1012.9
20260905023057 26 224 0.0 0.0 0.00 0.00 0.00 89 1012.7
20260905021556 26 224 0.0 0.0 0.00 0.00 0.00 89 1012.8
20260905020058 26 225 0.0 0.0 0.00 0.00 0.00 89 1012.7
20260905014555 26 224 0.0 0.0 0.00 0.00 0.00 86 1012.5
20260905013101 27 224 0.0 0.0 0.00 0.00 0.00 84 1012.6
20260905011554 27 224 0.0 0.0 0.00 0.00 0.00 83 1012.3
20260905004554 28 224 0.0 0.0 0.00 0.00 0.00 80 1012.3
20260905003053 28 224 0.0 0.0 0.00 0.00 0.00 77 1012.3
20260905001553 30 224 0.0 0.0 0.00 0.00 0.00 75 1012.4
20260905000052 30 224 0.0 0.0 0.00 0.00 0.00 72 1012.3
20260904234551 31 224 0.0 0.0 0.00 0.00 0.00 69 1012.3
20260904233051 31 224 0.0 3.2 0.00 0.00 0.00 68 1012.3
20260904231602 32 133 0.0 3.2 0.00 0.00 0.00 65 1012.3
20260904230050 32 286 0.0 4.8 0.00 0.00 0.00 64 1012.1
20260904224549 32 204 0.0 3.2 0.00 0.00 0.00 65 1012.1
20260904223049 33 104 0.0 6.4 0.00 0.00 0.00 63 1012.1
20260904221555 33 64 0.0 8.0 0.00 0.00 0.00 61 1011.9
20260904220057 33 257 0.0 4.8 0.00 0.00 0.00 61 1011.9
20260904214548 34 190 0.0 4.8 0.00 0.00 0.00 59 1011.9
20260904213047 34 158 1.6 8.0 0.00 0.00 0.00 58 1011.9
20260904211546 34 283 1.6 8.0 0.00 0.00 0.00 58 1012.2
20260904210045 34 252 1.6 8.0 0.00 0.00 0.00 58 1012.4
20260904204543 34 269 1.6 6.4 0.00 0.00 0.00 58 1012.4
20260904203051 34 123 0.0 4.8 0.00 0.00 0.00 60 1012.5
20260904201542 34 165 0.0 6.4 0.00 0.00 0.00 58 1012.8
20260904200053 34 296 1.6 8.0 0.00 0.00 0.00 57 1013.0
20260904194537 34 264 1.6 9.7 0.00 0.00 0.00 58 1013.2
20260904193031 33 297 1.6 8.0 0.00 0.00 0.00 60 1013.4
20260904191534 34 291 1.6 6.4 0.00 0.00 0.00 60 1013.7